Location: Prairie Dale
(45.6972°N, 104.5033°W)
Time: 20:31:32
(UTC+00:00)

EO-79 - Pass Details

Date: 06 July 2022
Orbit: 588 x 603 km, 98.0° (Epoch: 11 August)

Event Time Altitude Azimuth Distance (km) Brightness Sun altitude
Rises 09:49:55 0° 360° (N) 2,860 ? -11.8°
Reaches altitude 10° 09:52:29 10° 345° (NNW) 1,954 ? -11.5°
Maximum altitude 09:55:41 21° 296° (WNW) 1,359 ? -11.2°
Enters shadow 09:58:31 12° 250° (WSW) 1,837 ? -10.9°
